Flag for Turkey Weather past 2 weeks in Bursa, Turkey

Now
54 °F

Partly sunny.


Feels Like: 54 °F
Forecast: 44 / 53 °F
Wind: 5 mph from East

Location: Bursa

Current Time: Jan 27, 2015 at 1:34:25 PM

Latest Report: Jan 27, 2015 at 12:00 PM


Visibility: 6 mi

Pressure: 29.98 "Hg

Humidity: 68%

Dew point: 44 °F

Location of BursaLocation

Historic Weather in Bursa — Graph

°F

Bursa temperature yesterday

Maximum temperature yesterday: 57 °F (at 3:00 PM)
Minimum temperature yesterday: 36 °F (at 8:00 AM)
Average temperature yesterday: 48 °F

Past Weeks' High & Low Weather Summary

 TemperatureHumidityPressure
High63 °F (Jan 25, 4:00 PM)100% (Jan 12, 3:00 PM)30.42 "Hg (Jan 12, 3:00 PM)
Low28 °F (Jan 17, 8:00 AM)38% (Jan 25, 4:00 PM)29.80 "Hg (Jan 24, 5:00 AM)
Average46 °F72%30.15 "Hg
* Reported Jan 12 12:00 Noon — Jan 27 12:00 Noon, Bursa, Weather by CustomWeather, © 2014

Note: Actual official high and low records may vary slightly from our data, if they occured in-between our weather recording intervals... More about our weather records

Advertising

Bursa weather history for previous 24 hours

 ConditionsComfort  
Time TempWeatherWind HumidityBarometerVisibility
12:00 PM
Jan 27
54 °FPartly sunny.5 mph68%29.98 "Hg6 mi
11:00 AM51 °FPartly sunny.5 mph79%30.02 "Hg6 mi
10:00 AM47 °FFog.1 mph92%30.04 "Hg4 mi
9:00 AM44 °FFog.1 mph99%30.06 "Hg4 mi
8:00 AM40 °FFog.3 mph99%30.05 "Hg3 mi
7:00 AM41 °FFog.1 mph99%30.07 "Hg1 mi
6:00 AM41 °FFog.2 mph99%30.08 "Hg2 mi
4:00 AM41 °FOvercast.1 mph99%30.08 "Hg6 mi
3:00 AM44 °FOvercast.1 mph99%30.09 "Hg6 mi
2:00 AM46 °FSprinkles. Overcast.1 mph99%30.10 "Hg5 mi
1:00 AM46 °FSprinkles. Overcast.2 mph99%30.12 "Hg5 mi
12:00 AM46 °FSprinkles. Overcast.3 mph99%30.12 "Hg5 mi
10:00 PM
Jan 26
47 °FOvercast.1 mph97%30.14 "Hg7 mi
9:00 PM48 °FOvercast.2 mph89%30.14 "Hg6 mi
8:00 PM48 °FOvercast.5 mph89%30.14 "Hg6 mi
7:00 PM50 °FSprinkles. Overcast.3 mph88%30.14 "Hg5 mi
6:00 PM50 °FSprinkles. Overcast.1 mph87%30.12 "Hg5 mi
5:00 PM53 °FOvercast.2 mph73%30.11 "Hg6 mi
4:00 PM56 °FOvercast.1 mph67%30.11 "Hg7 mi
3:00 PM57 °FPartly sunny.2 mph55%30.10 "Hg9 mi
2:00 PM56 °FPartly sunny.2 mph57%30.10 "Hg9 mi
1:00 PM55 °FPartly sunny.3 mph59%30.10 "Hg9 mi
Weather by CustomWeather, © 2014

See weather overviewHow to use our weather pages